Location: Unspecified
(42.9300°N, 71.1866°W)
Time: 11:47:23
(UTC-04:00)

Resurs 1-4 Rocket - Visible Passes

Search period start: 26 April 2017 00:00
Search period end: 06 May 2017 00:00
Orbit: 799 x 815 km, 98.5° (Epoch: 24 April)

Date Brightness Start Highest point End Pass type
(mag) Time Alt. Az. Time Alt. Az. Time Alt. Az.
26 Apr 2.3 03:01:55 10° NNE 03:07:10 65° ESE 03:08:31 47° SSE visible
26 Apr 3.7 04:43:01 10° NNW 04:46:29 18° WNW 04:49:36 11° W visible
27 Apr 3.1 02:37:35 10° NNE 02:42:31 39° E 02:43:44 34° SE visible
27 Apr 3.2 04:17:45 10° N 04:22:11 28° WNW 04:24:49 19° WSW visible
28 Apr 3.8 02:13:34 10° NE 02:17:47 24° E 02:18:58 22° ESE visible
28 Apr 2.5 03:52:48 10° N 03:57:48 45° WNW 04:00:03 29° WSW visible
29 Apr 4.3 01:50:12 10° ENE 01:52:57 14° E 01:54:11 13° ESE visible
29 Apr 2.0 03:28:04 10° N 03:33:20 74° WNW 03:35:17 40° SSW visible
29 Apr 4.2 05:11:00 10° NW 05:12:15 11° NW 05:13:29 10° WNW visible
30 Apr 2.2 03:03:31 10° NNE 03:08:47 68° ESE 03:10:30 42° S visible
30 Apr 3.8 04:44:41 10° NNW 04:48:03 17° WNW 04:51:26 10° W visible
01 May 3.0 02:39:10 10° NNE 02:44:08 41° E 02:45:44 32° SE visible
01 May 3.2 04:19:23 10° N 04:23:47 27° WNW 04:26:49 16° WSW visible
02 May 3.7 02:15:07 10° NE 02:19:24 25° E 02:20:57 22° ESE visible
02 May 2.6 03:54:25 10° N 03:59:23 43° WNW 04:02:02 25° SW visible
03 May 4.3 01:51:39 10° NE 01:54:35 15° E 01:56:10 13° ESE visible
03 May 2.1 03:29:40 10° N 03:34:56 71° WNW 03:37:15 34° SSW visible
04 May 2.2 03:05:06 10° NNE 03:10:23 71° ESE 03:12:28 37° S visible
04 May 3.8 04:46:22 10° NNW 04:49:38 17° WNW 04:52:54 10° W visible
05 May 3.0 02:40:44 10° NNE 02:45:45 42° E 02:47:41 31° SE visible
05 May 3.3 04:21:02 10° N 04:25:21 26° WNW 04:28:46 14° WSW visible
